GFSNIL_925_temp_114.txt.gz
Temp
3 4 4 5 6 7 10 12 14 18 19 17 17 19 18 17 17 17 17 17 17 17
2 2 3 3 4 5 7 9 11 14 18 17 17 17 17 17 17 16 16 17 17 17
1 1 2 3 4 5 6 7 9 12 17 17 16 16 16 17 17 17 16 16 16 17
0 1 2 3 3 5 7 8 8 12 16 17 16 16 16 16 17 17 16 16 16 16
-1 -0 1 2 3 4 6 11 10 12 16 17 17 17 16 16 17 17 17 16 16 16
-1 -1 -0 1 1 2 5 11 15 15 17 17 17 18 16 16 16 16 16 16 16 15
-2 -2 -1 -0 -0 2 1 4 9 13 16 17 17 16 15 16 16 16 16 15 15 15
-2 -2 -2 -2 -1 -0 0 1 2 6 7 10 12 13 15 15 15 15 14 14 14 13
-2 -3 -3 -3 -3 -2 -1 -2 -1 0 1 1 3 9 14 15 15 12 13 11 8 8
-2 -3 -3 -4 -4 -4 -3 -2 -3 -2 -1 -1 -0 2 8 8 9 7 6 6 6 5
-2 -2 -3 -3 -4 -4 -4 -4 -4 -4 -3 -2 -1 -0 -0 -1 1 1 1 2 1 2
-3 -3 -2 -2 -3 -3 -4 -4 -5 -5 -5 -4 -4 -1 1 -0 -3 -3 -3 -2 -1 -1
-4 -3 -3 -3 -3 -3 -3 -4 -4 -4 -4 -5 -5 -4 -3 -1 -3 -4 -4 -4 -4 -4
-4 -4 -4 -4 -4 -4 -4 -4 -4 -5 -5 -5 -4 -5 -5 -5 -5 -5 -5 -5 -5 -4

GFSNIL_925_temp_117.txt.gz
Temp
1 1 2 2 3 4 4 5 6 7 8 10 15 16 18 18 18 16 17 16 16 16
-0 -0 1 1 2 2 3 4 5 6 7 8 11 14 17 17 18 17 16 16 16 16
-1 -1 -0 0 1 2 3 4 4 5 6 7 9 13 16 16 17 17 16 16 16 15
-1 -1 -1 -0 1 2 2 3 4 5 7 7 8 11 15 16 17 17 17 16 16 15
-1 -1 -1 -1 -0 0 1 2 3 6 7 9 8 11 14 16 17 17 17 16 15 15
-2 -2 -2 -2 -1 -1 -0 1 2 4 7 10 10 11 14 16 16 16 17 16 15 15
-2 -3 -3 -3 -3 -2 -2 -1 0 2 3 8 11 13 15 16 17 17 17 16 17 17
-2 -3 -3 -4 -4 -3 -3 -2 -1 -0 0 3 6 9 12 15 18 18 16 16 16 15
-2 -2 -3 -3 -4 -4 -4 -3 -2 -2 -2 -1 -0 4 12 13 15 14 12 11 10 11
-3 -3 -3 -3 -3 -4 -4 -4 -4 -3 -3 -2 -1 -1 2 7 3 2 3 3 3 4
-4 -3 -3 -3 -3 -4 -4 -4 -4 -4 -4 -4 -3 -1 -2 -2 -2 -1 -1 -0 -0 0
-5 -5 -4 -4 -4 -4 -4 -5 -5 -5 -4 -4 -4 -4 -3 -2 -3 -3 -3 -3 -2 -2
-5 -6 -6 -5 -5 -5 -5 -5 -6 -6 -5 -5 -4 -4 -4 -4 -3 -4 -4 -4 -4 -4
-6 -6 -7 -6 -6 -6 -6 -6 -6 -6 -6 -6 -5 -4 -4 -4 -5 -4 -4 -4 -4 -4

GFSNIL_925_temp_123.txt.gz
Temp
-1 -1 -1 -0 -0 0 1 1 2 2 3 3 4 4 5 5 7 8 11 14 14 15
-2 -1 -1 -1 -1 -0 -0 1 1 1 2 2 3 3 4 5 5 7 9 12 14 14
-2 -2 -2 -2 -1 -1 -1 -1 -0 0 1 1 2 3 4 5 5 6 8 10 13 14
-2 -2 -2 -2 -2 -2 -2 -2 -1 -1 -0 0 1 2 3 4 5 6 7 9 11 14
-2 -2 -2 -3 -3 -3 -3 -3 -2 -1 -1 -0 0 1 3 4 5 7 8 8 9 13
-3 -3 -3 -3 -4 -4 -4 -3 -3 -2 -2 -2 -1 -0 1 2 3 5 7 8 9 12
-4 -4 -4 -4 -4 -4 -5 -4 -4 -3 -3 -3 -2 -1 -1 0 2 4 9 9 9 11
-5 -5 -5 -5 -5 -5 -5 -5 -5 -4 -3 -3 -2 -2 -2 2 4 5 9 9 9 10
-5 -5 -6 -5 -6 -6 -6 -5 -5 -5 -4 -3 -3 -2 -2 -0 1 2 4 4 5 7
-5 -6 -6 -6 -6 -6 -6 -6 -6 -5 -4 -4 -3 -3 -3 -2 -2 -2 -1 -1 -0 1
-7 -7 -6 -6 -7 -7 -7 -7 -6 -6 -5 -5 -4 -4 -3 -3 -3 -3 -3 -3 -2 -2
-7 -7 -7 -7 -7 -7 -7 -7 -6 -6 -6 -5 -5 -5 -4 -4 -4 -4 -4 -4 -3 -3
-7 -7 -7 -8 -8 -7 -7 -7 -7 -7 -7 -6 -6 -5 -5 -5 -5 -5 -5 -5 -4 -4
-7 -7 -7 -8 -8 -8 -8 -8 -7 -7 -7 -7 -7 -7 -6 -6 -6 -6 -6 -6 -5 -5

GFSNIL_925_temp_129.txt.gz
Temp
-1 -1 -1 -1 -1 -1 -1 -1 -0 -0 -0 0 1 1 2 2 3 4 5 5 6 7
-2 -2 -2 -2 -2 -2 -2 -1 -1 -1 -1 -1 -0 0 1 1 2 3 4 5 5 6
-3 -2 -2 -2 -2 -3 -3 -3 -2 -2 -2 -1 -1 -0 0 1 1 2 3 4 5 5
-3 -3 -3 -3 -4 -4 -3 -3 -3 -3 -3 -2 -2 -1 -1 -1 0 2 3 4 4 6
-4 -4 -4 -4 -4 -4 -4 -4 -4 -3 -3 -3 -2 -2 -1 -1 -0 0 1 2 3 5
-5 -5 -5 -5 -5 -5 -5 -5 -4 -4 -3 -3 -3 -3 -2 -2 -1 -0 -0 1 2 4
-5 -5 -5 -5 -6 -5 -5 -5 -5 -5 -4 -4 -4 -4 -3 -2 -2 -1 -0 1 1 3
-6 -7 -6 -6 -6 -6 -6 -6 -6 -6 -5 -4 -4 -4 -4 -4 -3 -3 -2 -1 0 1
-7 -7 -7 -7 -7 -7 -6 -7 -7 -7 -6 -6 -5 -5 -5 -5 -5 -5 -4 -3 -3 -2
-7 -7 -7 -8 -7 -7 -7 -7 -7 -7 -7 -7 -6 -6 -6 -6 -6 -6 -5 -5 -4 -4
-7 -8 -8 -8 -8 -8 -7 -7 -7 -8 -7 -8 -7 -6 -7 -7 -6 -6 -6 -6 -5 -5
-7 -8 -8 -8 -8 -8 -8 -8 -8 -8 -8 -8 -8 -7 -7 -7 -7 -7 -7 -7 -6 -6
-8 -8 -8 -8 -8 -9 -8 -8 -8 -9 -9 -9 -8 -7 -7 -8 -9 -8 -8 -8 -8 -7
-8 -8 -8 -8 -8 -9 -9 -9 -9 -9 -9 -9 -9 -9 -8 -8 -9 -9 -9 -9 -9 -9

GFSNIL_925_temp_132.txt.gz
Temp
0 0 1 0 0 0 0 0 0 1 1 1 1 1 1 2 2 3 4 5 5 6
-0 -1 -1 -1 -1 -1 -1 -1 -1 -1 -0 -0 -0 0 0 1 1 2 2 3 4 5
-1 -1 -1 -1 -2 -2 -2 -2 -2 -2 -1 -1 -1 -0 -0 0 0 1 1 2 3 4
-1 -1 -2 -2 -2 -3 -3 -3 -2 -2 -1 -1 -1 -1 -1 -1 -0 0 1 2 3 3
-2 -2 -2 -3 -3 -3 -3 -3 -3 -3 -2 -2 -2 -2 -2 -1 -1 -0 0 1 1 2
-2 -3 -3 -4 -4 -4 -3 -3 -3 -3 -3 -2 -2 -2 -3 -3 -3 -2 -1 -0 0 1
-3 -4 -4 -4 -4 -4 -4 -4 -4 -4 -4 -3 -3 -4 -3 -3 -3 -4 -3 -2 -2 1
-4 -4 -5 -5 -5 -4 -4 -5 -5 -5 -4 -4 -4 -5 -5 -4 -4 -4 -5 -4 -4 -3
-6 -6 -6 -6 -5 -5 -5 -5 -6 -6 -5 -5 -5 -6 -6 -6 -5 -5 -6 -5 -5 -4
-6 -6 -6 -6 -6 -5 -5 -5 -6 -7 -6 -7 -7 -6 -7 -7 -6 -7 -7 -6 -6 -5
-7 -6 -6 -6 -6 -6 -6 -6 -6 -7 -7 -7 -7 -7 -7 -7 -7 -7 -8 -8 -7 -6
-7 -7 -6 -7 -6 -6 -6 -6 -7 -7 -8 -8 -8 -8 -8 -8 -8 -8 -8 -9 -8 -8
-7 -6 -6 -7 -7 -7 -6 -7 -7 -7 -8 -8 -9 -8 -8 -9 -9 -9 -9 -9 -9 -9
-6 -6 -6 -6 -7 -7 -7 -7 -7 -7 -7 -8 -9 -9 -9 -9 -10 -10 -10 -10 -10 -10

GFSNIL_925_temp_135.txt.gz
Temp
3 3 3 2 1 2 1 1 1 0 0 1 1 1 1 1 1 2 3 3 4 5
2 2 1 1 0 0 -0 -0 -0 -0 -0 -0 0 1 1 1 1 1 1 2 2 3
2 1 0 0 -1 -1 -1 -1 -1 -1 -1 -0 -0 -0 -0 -0 0 1 1 1 2 2
1 0 -0 -1 -1 -2 -1 -1 -1 -1 -1 -1 -1 -1 -1 -1 -0 -1 -0 -0 1 2
0 -0 -1 -1 -2 -2 -2 -2 -2 -2 -2 -2 -2 -2 -2 -2 -2 -1 -2 -2 -1 0
1 -0 -1 -2 -2 -2 -3 -3 -3 -3 -3 -3 -3 -3 -3 -2 -2 -2 -2 -3 -3 -2
-1 -1 -2 -2 -2 -2 -2 -3 -4 -3 -3 -4 -4 -4 -4 -3 -3 -3 -3 -4 -4 -4
-2 -3 -3 -3 -3 -2 -3 -3 -4 -4 -4 -4 -5 -5 -5 -4 -4 -5 -5 -5 -5 -5
-4 -4 -5 -4 -4 -3 -4 -4 -5 -5 -5 -5 -6 -6 -6 -6 -5 -6 -7 -6 -6 -6
-5 -5 -5 -5 -5 -5 -5 -5 -5 -6 -6 -6 -7 -7 -7 -6 -6 -7 -8 -8 -8 -7
-5 -5 -5 -5 -5 -5 -5 -5 -6 -6 -7 -7 -7 -7 -8 -7 -7 -7 -8 -9 -8 -8
-5 -5 -5 -5 -5 -5 -5 -5 -6 -6 -7 -8 -8 -8 -8 -8 -8 -9 -9 -9 -9 -9
-5 -5 -6 -5 -5 -6 -5 -5 -5 -6 -7 -7 -8 -8 -8 -9 -8 -8 -9 -9 -10 -9
-5 -5 -5 -5 -6 -5 -5 -5 -5 -5 -6 -7 -8 -9 -8 -9 -9 -9 -9 -10 -10 -9

GFSNIL_925_temp_138.txt.gz
Temp
3 3 2 1 1 0 -0 -0 -0 -1 -0 -0 -0 -0 -0 0 0 1 1 1 2 2
2 2 1 0 -0 -1 -1 -0 -1 -1 -1 -1 -1 -1 -1 -1 -0 -0 0 1 1 1
2 1 0 -0 -1 -1 -1 -1 -1 -2 -2 -2 -2 -2 -2 -2 -1 -1 -1 -1 -1 -0
1 1 -0 -1 -1 -2 -2 -2 -2 -2 -2 -2 -3 -3 -3 -2 -2 -2 -2 -2 -2 -2
1 0 -1 -1 -2 -2 -2 -2 -2 -3 -3 -3 -4 -4 -4 -3 -3 -3 -3 -3 -3 -3
0 0 -1 -1 -1 -1 -2 -3 -3 -3 -4 -4 -5 -5 -5 -4 -4 -5 -5 -5 -4 -4
-1 -2 -2 -2 -2 -2 -3 -4 -4 -4 -5 -5 -6 -6 -5 -5 -5 -6 -6 -6 -6 -5
-3 -3 -3 -3 -3 -3 -4 -5 -5 -5 -6 -6 -6 -6 -6 -6 -6 -7 -7 -7 -7 -7
-4 -4 -4 -4 -4 -4 -5 -5 -6 -6 -6 -7 -7 -7 -6 -6 -7 -8 -8 -8 -8 -8
-5 -5 -5 -5 -5 -5 -5 -6 -6 -7 -7 -8 -7 -7 -7 -7 -8 -8 -9 -9 -9 -8
-5 -5 -5 -5 -5 -5 -5 -6 -6 -7 -7 -8 -8 -7 -8 -8 -8 -9 -9 -9 -9 -9
-5 -5 -5 -5 -5 -5 -5 -5 -6 -7 -7 -8 -8 -7 -8 -9 -8 -9 -9 -9 -9 -8
-5 -5 -5 -5 -5 -5 -5 -5 -5 -7 -7 -8 -9 -8 -8 -8 -9 -9 -9 -9 -9 -8
-5 -5 -5 -5 -5 -5 -5 -5 -5 -6 -7 -8 -9 -9 -8 -8 -9 -9 -9 -9 -9 -9

GFSNIL_925_temp_144.txt.gz
Temp
1 0 -1 -1 -1 -1 -2 -2 -2 -3 -3 -3 -3 -2 -2 -3 -3 -3 -3 -2 -2 -2
0 -0 -1 -1 -2 -2 -2 -2 -3 -3 -3 -3 -3 -3 -3 -4 -5 -4 -4 -4 -4 -3
-0 -1 -1 -2 -2 -2 -3 -3 -3 -4 -4 -4 -4 -4 -5 -5 -6 -6 -6 -6 -5 -5
-0 -1 -2 -2 -3 -3 -3 -4 -4 -5 -5 -5 -5 -5 -5 -6 -6 -7 -7 -7 -6 -6
-1 -1 -2 -3 -3 -3 -4 -5 -5 -5 -5 -6 -6 -6 -6 -7 -7 -8 -8 -8 -7 -7
-2 -2 -3 -3 -3 -4 -5 -5 -5 -6 -6 -6 -6 -7 -7 -7 -8 -8 -8 -8 -8 -7
-2 -3 -3 -4 -4 -5 -5 -6 -6 -7 -7 -6 -7 -7 -8 -8 -8 -9 -9 -9 -8 -7
-3 -4 -4 -4 -5 -5 -6 -6 -7 -7 -7 -7 -6 -7 -8 -9 -9 -9 -9 -9 -9 -8
-4 -4 -5 -5 -6 -6 -7 -7 -7 -7 -7 -7 -7 -7 -8 -9 -9 -8 -9 -9 -9 -9
-5 -5 -5 -6 -6 -7 -7 -7 -7 -7 -7 -7 -7 -8 -8 -9 -9 -9 -9 -8 -8 -9
-5 -5 -5 -6 -7 -7 -8 -8 -8 -8 -7 -7 -7 -8 -9 -9 -9 -9 -9 -9 -8 -9
-5 -5 -5 -6 -7 -7 -8 -8 -9 -9 -8 -8 -7 -7 -8 -9 -9 -9 -9 -9 -9 -8
-5 -5 -5 -5 -6 -7 -8 -9 -9 -9 -9 -9 -8 -8 -8 -9 -9 -9 -10 -10 -9 -9
-5 -5 -5 -5 -5 -6 -8 -9 -10 -10 -10 -10 -10 -9 -8 -9 -10 -10 -10 -11 -11 -10

GFSNIL_925_temp_147.txt.gz
Temp
1 -0 -1 -1 -1 -2 -2 -3 -2 -3 -3 -3 -3 -3 -3 -3 -4 -4 -4 -3 -3 -3
-0 -1 -1 -2 -2 -2 -2 -3 -3 -3 -3 -4 -4 -4 -4 -5 -5 -5 -5 -5 -5 -5
-0 -1 -2 -2 -2 -3 -3 -3 -3 -4 -4 -4 -5 -5 -5 -5 -6 -6 -6 -6 -6 -6
-1 -2 -2 -2 -3 -3 -3 -3 -4 -5 -5 -5 -5 -6 -6 -7 -7 -7 -7 -7 -7 -7
-1 -2 -2 -3 -3 -4 -4 -4 -4 -5 -6 -6 -6 -6 -7 -7 -8 -8 -8 -7 -7 -7
-1 -2 -3 -3 -4 -4 -4 -5 -5 -6 -6 -6 -7 -7 -7 -7 -8 -8 -9 -8 -8 -7
-2 -3 -3 -4 -4 -5 -5 -5 -6 -6 -7 -7 -7 -7 -8 -8 -8 -8 -9 -9 -8 -8
-3 -4 -4 -5 -5 -5 -6 -6 -6 -7 -7 -7 -7 -8 -8 -8 -8 -9 -9 -9 -9 -8
-4 -4 -5 -6 -6 -6 -6 -7 -7 -7 -7 -7 -7 -8 -9 -8 -8 -8 -9 -9 -9 -9
-4 -5 -6 -6 -6 -7 -7 -7 -7 -7 -8 -8 -8 -8 -9 -9 -9 -8 -9 -9 -9 -9
-5 -6 -6 -6 -7 -7 -7 -7 -8 -7 -7 -8 -8 -8 -9 -9 -9 -9 -9 -9 -9 -9
-5 -6 -6 -7 -7 -8 -8 -8 -8 -8 -8 -8 -8 -8 -9 -9 -9 -9 -9 -9 -9 -9
-5 -5 -6 -7 -8 -8 -8 -9 -9 -9 -9 -8 -8 -8 -9 -9 -10 -10 -11 -10 -10 -10
-5 -5 -6 -7 -8 -8 -9 -9 -10 -10 -10 -9 -9 -8 -9 -11 -11 -11 -12 -12 -12 -12

GFSNIL_925_temp_153.txt.gz
Temp
3 2 0 1 -1 -1 -2 -3 -2 -2 -3 -3 -2 -2 -3 -3 -4 -3 -3 -3 -3 -3
1 1 0 -1 -1 -1 -2 -3 -3 -3 -3 -4 -4 -4 -4 -4 -4 -4 -4 -4 -3 -3
0 -0 -1 -1 -1 -2 -2 -3 -4 -4 -4 -4 -4 -5 -5 -5 -5 -4 -4 -4 -4 -4
-1 -0 -1 -3 -3 -3 -4 -4 -4 -5 -5 -5 -5 -5 -5 -5 -6 -5 -5 -5 -4 -5
-1 -1 -3 -3 -3 -4 -4 -5 -5 -5 -5 -6 -6 -6 -6 -6 -6 -6 -6 -6 -5 -6
-2 -3 -3 -4 -4 -5 -5 -5 -5 -5 -5 -6 -6 -6 -6 -6 -6 -6 -6 -6 -6 -7
-2 -3 -3 -4 -4 -5 -5 -5 -5 -6 -6 -6 -6 -6 -6 -6 -7 -7 -7 -7 -7 -7
-2 -3 -5 -5 -5 -6 -6 -6 -6 -6 -6 -6 -6 -7 -7 -7 -7 -7 -7 -8 -8 -8
-4 -5 -5 -6 -6 -7 -7 -7 -7 -7 -7 -6 -7 -8 -8 -8 -8 -8 -9 -9 -9 -9
-5 -4 -5 -6 -7 -7 -7 -7 -7 -7 -8 -8 -8 -8 -9 -8 -9 -10 -10 -10 -10 -9
-5 -5 -6 -6 -6 -7 -7 -7 -7 -8 -8 -8 -8 -9 -9 -9 -9 -9 -10 -10 -10 -10
-5 -6 -6 -6 -7 -7 -7 -8 -8 -8 -8 -8 -8 -9 -10 -9 -10 -10 -10 -10 -10 -11
-5 -5 -6 -7 -7 -7 -8 -8 -9 -9 -8 -8 -9 -9 -11 -10 -11 -11 -11 -11 -11 -11
-6 -6 -7 -7 -8 -8 -8 -9 -9 -9 -9 -9 -9 -9 -10 -12 -12 -12 -12 -13 -13 -12

GFSNIL_925_temp_156.txt.gz
Temp
6 6 4 4 3 2 2 1 0 1 1 0 0 0 1 1 1 1 1 1 1 2
4 3 3 2 2 1 1 0 0 0 0 -0 -0 -0 0 1 0 1 0 1 1 1
3 2 2 1 1 1 0 0 0 0 -0 -1 -1 -1 -0 0 -1 -0 -0 0 -0 -0
2 2 1 1 0 0 -0 -0 -0 -1 -1 -1 -1 -1 -1 -1 -1 -1 -1 -1 -1 -1
1 1 1 1 0 -0 -0 -1 -1 -1 -1 -2 -2 -2 -2 -1 -2 -1 -1 -2 -2 -2
1 1 1 0 -0 -1 -1 -1 -1 -1 -2 -2 -2 -2 -2 -2 -2 -2 -3 -3 -3 -4
1 0 1 -0 -1 -1 -1 -1 -1 -2 -2 -3 -3 -3 -3 -3 -3 -3 -4 -4 -4 -5
-1 -1 -1 -1 -2 -2 -2 -2 -2 -2 -3 -3 -4 -5 -3 -3 -3 -4 -4 -5 -5 -7
-2 -2 -2 -2 -3 -3 -3 -3 -3 -3 -3 -3 -5 -7 -6 -5 -5 -5 -6 -6 -6 -6
-3 -4 -4 -4 -3 -4 -5 -5 -6 -6 -6 -6 -7 -8 -8 -8 -7 -7 -8 -8 -7 -7
-4 -5 -5 -6 -6 -6 -7 -6 -6 -7 -7 -6 -8 -9 -9 -9 -8 -8 -9 -8 -9 -8
-4 -6 -6 -7 -7 -7 -7 -7 -7 -7 -7 -7 -8 -9 -9 -9 -8 -9 -9 -9 -9 -9
-5 -6 -7 -7 -7 -7 -7 -7 -7 -8 -8 -7 -8 -10 -10 -9 -8 -9 -9 -9 -10 -11
-5 -7 -7 -7 -7 -7 -7 -7 -7 -8 -8 -8 -8 -9 -11 -10 -9 -9 -9 -9 -10 -11

GFSNIL_925_temp_159.txt.gz
Temp
10 9 9 8 7 7 6 4 3 3 3 3 3 3 3 4 4 4 4 3 4 5
9 7 6 5 5 4 4 3 3 3 3 2 2 2 3 3 3 3 3 4 3 3
6 5 4 4 4 3 3 3 3 3 2 2 2 2 3 3 2 3 2 2 2 2
4 4 3 3 3 3 3 3 3 2 2 2 2 2 2 2 2 2 2 2 1 1
3 3 3 3 3 2 3 2 2 2 2 1 1 1 1 1 1 1 1 1 0 -1
2 3 3 3 3 2 2 2 2 1 1 1 1 1 0 0 0 -0 -1 -1 -1 -3
1 3 3 2 2 2 2 2 1 1 0 -0 -0 -0 -0 0 -0 -1 -2 -2 -3 -5
1 2 1 1 1 1 1 1 1 0 0 -0 -1 -2 -2 -1 -1 -1 -2 -2 -3 -6
-0 -1 0 0 0 0 0 -0 -0 -0 -0 -1 -4 -5 -4 -2 -2 -3 -4 -4 -4 -5
-2 -1 -2 -2 -1 -0 -1 -2 -4 -3 -4 -5 -7 -7 -6 -5 -5 -6 -6 -7 -6 -6
-3 -3 -3 -2 -3 -4 -4 -5 -5 -5 -5 -6 -7 -8 -7 -7 -7 -7 -7 -7 -8 -8
-3 -4 -4 -5 -5 -5 -5 -5 -5 -6 -6 -6 -8 -9 -8 -7 -7 -7 -8 -8 -9 -9
-4 -4 -5 -5 -5 -5 -5 -5 -6 -6 -6 -6 -8 -9 -8 -8 -7 -7 -7 -8 -9 -11
-4 -5 -6 -5 -5 -5 -5 -6 -6 -6 -7 -7 -7 -9 -9 -8 -7 -7 -7 -7 -8 -10

GFSNIL_925_temp_165.txt.gz
Temp
12 11 10 9 8 7 6 5 5 5 5 4 4 4 4 4 4 4 3 4 4 3
11 10 10 9 8 7 6 5 4 4 4 4 4 4 4 3 3 3 3 3 3 2
9 9 8 8 7 6 5 4 3 3 3 3 3 3 3 3 3 2 2 2 2 1
7 7 7 6 6 5 4 3 3 3 3 3 3 3 3 2 2 2 1 1 1 0
7 6 5 4 4 3 3 3 3 3 2 2 2 2 2 1 1 1 0 -1 -1 -2
6 5 4 3 2 1 1 1 2 2 2 2 1 1 1 1 0 -0 -1 -2 -3 -4
4 4 2 1 1 0 -0 -0 2 2 2 1 1 1 0 0 -1 -2 -3 -3 -4 -5
3 2 1 1 0 -1 -1 0 1 0 1 0 0 0 -0 -1 -2 -3 -4 -5 -5 -6
2 1 1 -0 -1 -1 -1 -1 -1 0 -0 -1 -1 -1 -1 -1 -2 -3 -5 -6 -7 -7
2 1 -0 -1 -1 -1 -2 -1 -0 -2 -1 -1 -3 -3 -3 -3 -3 -4 -5 -6 -7 -8
1 -0 -0 -1 -1 -2 -2 -2 -3 -3 -2 -3 -4 -5 -5 -4 -5 -6 -7 -7 -8 -9
0 -1 -1 -2 -2 -2 -2 -3 -4 -4 -4 -4 -5 -6 -6 -6 -6 -7 -8 -8 -9 -10
-0 -1 -2 -2 -2 -3 -3 -4 -4 -5 -5 -6 -6 -7 -7 -7 -7 -8 -9 -9 -10 -10
-1 -2 -2 -3 -3 -3 -4 -5 -5 -6 -6 -6 -6 -7 -7 -7 -7 -7 -8 -9 -10 -10